This is the latest recevied weather packets stored in our database for station/object KU4DD. If no packets are shown the sender has not sent any weather packets the latest 10 day(s).
| Time | Temp. | Humidity | Pressure | Rain* | Wind** | Luminosity | Snow |
|---|---|---|---|---|---|---|---|
| 1777630919 | 20.56° C | 52% | 1012.5 hPa | 0 mm | - | - | - |
| 1777629351 | 21.11° C | 52% | 1012.2 hPa | 0 mm | - | - | - |
| 1777627772 | 21.11° C | 51% | 1012.2 hPa | 0 mm | - | - | - |
| 1777627460 | 20.56° C | 53% | 1012.5 hPa | 0 mm | - | - | - |
| 1777625249 | 21.11° C | 54% | 1012.2 hPa | 0 mm | - | - | - |
| 1777622431 | 21.11° C | 52% | 1011.9 hPa | 0 mm | - | - | - |
| 1777621804 | 21.11° C | 53% | 1011.9 hPa | 0 mm | - | - | - |
| 1777620863 | 21.11° C | 52% | 1011.5 hPa | 0 mm | - | - | - |
| 1777619919 | 21.11° C | 55% | 1011.2 hPa | 0 mm | - | - | - |
| 1777615540 | 21.11° C | 57% | 1010.8 hPa | 0 mm | - | - | - |
| 1777615226 | 21.11° C | 56% | 1010.8 hPa | 0 mm | - | - | - |
| 1777613667 | 21.67° C | 57% | 1010.8 hPa | 0 mm | - | - | - |
| 1777612087 | 21.67° C | 56% | 1010.5 hPa | 0 mm | - | - | - |
| 1777610521 | 21.67° C | 57% | 1010.2 hPa | 0 mm | - | - | - |
| 1777608641 | 21.67° C | 56% | 1010.2 hPa | 0 mm | - | - | - |
| 1777607701 | 21.67° C | 56% | 1009.8 hPa | 0 mm | - | - | - |
| 1777606434 | 21.67° C | 56% | 1009.8 hPa | 0 mm | - | - | - |
| 1777603594 | 21.67° C | 56% | 1009.1 hPa | 0 mm | - | - | - |
| 1777597914 | 21.67° C | 54% | 1008.1 hPa | 0 mm | - | - | - |
| 1777595706 | 21.67° C | 53% | 1007.5 hPa | 0 mm | - | - | - |
| 1777593514 | 21.67° C | 53% | 1007.5 hPa | 0 mm | - | - | - |
| 1777590356 | 21.67° C | 51% | 1006.8 hPa | 0 mm | - | - | - |
| 1777589728 | 21.67° C | 50% | 1006.4 hPa | 0 mm | - | - | - |
| 1777588488 | 22.22° C | 51% | 1006.4 hPa | 0 mm | - | - | - |
| 1777587550 | 21.67° C | 49% | 1006.4 hPa | 0 mm | - | - | - |
* Rain latest hour (hover to see other rain measurements)
** Current wind speed in m/s (hover to see current wind gust speed)